Simultaneous Nadir Overpasses (SNOs) Predictions

Prediction of SNOs between METOP-B and NPP Satellite Orbit:

Table of predicted SNOs for the next 14.0 days since TLE Epoch: 4/12/2025
Index Date (METOP-B) Time (METOP-B) Lat,Lon (METOP-B) SZA (METOP-B ) Date (NPP) Time (NPP) Lat,Lon (NPP) SZA (NPP ) Distance(km) Time Diff (sec)
1 04/19/2025 17:42:06 74.81, -94.65 63.49 04/19/2025 17:41:01 74.80, -98.08 63.67 99.92 65
2 04/19/2025 18:32:50 -74.70, 72.37 116.63 04/19/2025 18:31:43 -74.70, 69.51 116.46 84.03 67
3 04/19/2025 19:23:35 74.45,-120.94 63.15 04/19/2025 19:22:24 74.46,-122.53 63.26 47.46 71
4 04/19/2025 20:14:18 -74.39, 46.22 116.92 04/19/2025 20:13:06 -74.36, 45.04 116.87 35.59 72
5 04/19/2025 21:05:02 74.19,-146.95 62.90 04/19/2025 21:03:48 74.17,-147.15 62.91 6.52 74
6 04/19/2025 21:55:45 -74.13, 20.22 117.17 04/19/2025 21:54:31 -74.12, 20.29 117.16 2.12 74
7 04/19/2025 22:46:25 74.12,-172.45 62.82 04/19/2025 22:45:17 74.12,-172.40 62.83 1.76 68
8 04/19/2025 23:37:07 -74.11, -5.16 117.21 04/19/2025 23:36:01 -74.12, -5.08 117.19 2.53 66
9 04/20/2025 00:27:47 74.10, 162.16 62.78 04/20/2025 00:26:47 74.12, 162.23 62.80 2.55 60
10 04/20/2025 01:18:28 -74.14, -30.42 117.21 04/20/2025 01:17:31 -74.12, -30.46 117.22 2.80 57
11 04/20/2025 02:09:08 74.14, 136.90 62.78 04/20/2025 02:08:17 74.12, 136.86 62.78 2.48 51
12 04/20/2025 02:59:50 -74.12, -55.81 117.25 04/20/2025 02:59:01 -74.12, -55.83 117.24 1.00 49
13 04/20/2025 03:50:30 74.12, 111.51 62.74 04/20/2025 03:49:47 74.12, 111.48 62.75 0.94 43
14 04/20/2025 04:41:12 -74.11, -81.19 117.29 04/20/2025 04:40:31 -74.12, -81.20 117.27 1.14 41
15 04/20/2025 05:31:52 74.10, 86.13 62.70 04/20/2025 05:31:17 74.12, 86.11 62.73 1.75 35
16 04/20/2025 06:22:34 -74.09,-106.57 117.33 04/20/2025 06:22:01 -74.12,-106.57 117.29 2.96 33
17 04/20/2025 07:13:14 74.08, 60.74 62.66 04/20/2025 07:12:47 74.12, 60.74 62.70 3.56 27
18 04/20/2025 08:03:55 -74.12,-131.84 117.32 04/20/2025 08:03:31 -74.11,-131.95 117.32 3.35 24
19 04/20/2025 08:54:35 74.11, 35.48 62.66 04/20/2025 08:54:17 74.11, 35.36 62.68 3.54 18
20 04/20/2025 09:45:17 -74.10,-157.22 117.36 04/20/2025 09:45:01 -74.11,-157.32 117.34 3.16 16
21 04/20/2025 10:35:57 74.10, 10.10 62.63 04/20/2025 10:35:46 74.06, 10.11 62.59 3.67 11
22 04/20/2025 11:26:39 -74.09, 177.39 117.40 04/20/2025 11:26:30 -74.06, 177.43 117.42 2.65 9
23 04/20/2025 12:17:19 74.08, -15.29 62.59 04/20/2025 12:17:16 74.06, -15.26 62.57 1.94 3
24 04/20/2025 13:08:01 -74.07, 152.01 117.44 04/20/2025 13:08:00 -74.06, 152.06 117.45 1.58 1
25 04/20/2025 13:58:41 74.06, -40.67 62.55 04/20/2025 13:58:46 74.06, -40.63 62.54 1.28 5
26 04/20/2025 14:49:23 -74.05, 126.63 117.48 04/20/2025 14:49:30 -74.06, 126.69 117.47 2.28 7
27 04/20/2025 15:40:03 74.04, -66.06 62.51 04/20/2025 15:40:16 74.06, -66.00 62.52 2.65 13
28 04/20/2025 16:30:44 -74.08, 101.36 117.48 04/20/2025 16:31:00 -74.06, 101.31 117.50 2.71 16
29 04/20/2025 17:21:24 74.08, -91.32 62.51 04/20/2025 17:21:46 74.06, -91.38 62.49 2.29 22
30 04/20/2025 18:12:06 -74.06, 75.98 117.52 04/20/2025 18:12:30 -74.06, 75.94 117.52 1.20 24
31 04/20/2025 19:02:46 74.06,-116.71 62.47 04/20/2025 19:03:16 74.06,-116.75 62.47 1.43 30
32 04/20/2025 19:53:28 -74.05, 50.59 117.55 04/20/2025 19:54:00 -74.06, 50.57 117.55 1.67 32
33 04/20/2025 20:44:08 74.04,-142.09 62.43 04/20/2025 20:44:46 74.06,-142.12 62.45 2.54 38
34 04/20/2025 21:34:50 -74.03, 25.21 117.59 04/20/2025 21:35:30 -74.06, 25.20 117.57 3.39 40
35 04/20/2025 22:25:30 74.02,-167.47 62.39 04/20/2025 22:26:15 74.01,-167.37 62.37 3.29 45
36 04/20/2025 23:16:12 -74.01, -0.17 117.63 04/20/2025 23:16:59 -74.01, -0.05 117.65 3.63 47
37 04/21/2025 00:06:52 74.00, 167.14 62.35 04/21/2025 00:07:45 74.01, 167.25 62.34 3.47 53
38 04/21/2025 00:57:33 -74.04, -25.44 117.63 04/21/2025 00:58:30 -74.06, -25.55 117.62 3.78 57
39 04/21/2025 01:48:13 74.04, 141.88 62.36 04/21/2025 01:49:15 74.01, 141.88 62.32 2.91 62
40 04/21/2025 02:38:55 -74.03, -50.82 117.67 04/21/2025 02:39:59 -74.01, -50.80 117.70 2.04 64
41 04/21/2025 03:29:35 74.02, 116.49 62.32 04/21/2025 03:30:45 74.01, 116.51 62.29 1.07 70
42 04/21/2025 04:20:17 -74.01, -76.21 117.71 04/21/2025 04:21:29 -74.01, -76.17 117.73 0.99 72
43 04/21/2025 05:11:00 73.85, 90.75 62.15 04/21/2025 05:12:12 73.86, 91.50 62.10 22.98 72
44 04/21/2025 06:01:43 -73.74,-102.17 117.96 04/21/2025 06:02:54 -73.81,-101.07 117.97 35.25 71
45 04/21/2025 06:52:27 73.53, 64.68 61.86 04/21/2025 06:53:35 73.56, 66.83 61.75 67.78 68
46 04/21/2025 07:43:11 -73.42,-128.24 118.25 04/21/2025 07:44:18 -73.51,-125.74 118.33 79.58 67



Historial Predications of SNOs between METOP-B and NPP
